Albuquerque, NM

11:11 AM MDT on May 24, 2017 (GMT -0600)
Albuquerque International Sunport

Weather History for KABQ - August, 2014

Change the Weather History Date:

Thursday, August 14, 2014

  Actual Average Record
Temperature  
Mean Temperature 73 °F 76 °F  
Max Temperature 83 °F 88 °F 98 °F (1936)
Min Temperature 63 °F 66 °F 49 °F (1912)
Degree Days  
Heating Degree Days 0 0  
Month to date heating degree days 0 0  
Since 1 June heating degree days 0 4  
Since 1 July heating degree days 0 0  
Cooling Degree Days 8 12  
Month to date cooling degree days 128 168  
Year to date cooling degree days 1065 979  
Since 1 June cooling degree days 953 881  
Growing Degree Days 22 (Base 50)    
Moisture  
Dew Point 57 °F    
Average Humidity 64    
Maximum Humidity 87    
Minimum Humidity 40    
Precipitation  
Precipitation T in 0.06 in 1.75 in (1980)
Month to date precipitation 1.16 0.81  
Year to date precipitation 5.77 5.51  
Snow  
Snow 0.00 in - - ()
Month to date snowfall 0.0  
Since 1 June snowfall 0.0  
Since 1 July snowfall 0.0  
Snow Depth 0.00 in    
Sea Level Pressure  
Sea Level Pressure 30.00 in    
Wind  
Wind Speed 7 mph (SSW)    
Max Wind Speed 18 mph    
Max Gust Speed 23 mph    
Visibility 10 miles    
Events Rain , Thunderstorm    
T = Trace of Precipitation, MM = Missing Value Source: NWS Daily Summary

Daily Weather History Graph

Daily Weather History Graph

Search for Another Location

Airport or City:

Trip Planner

Search our weather history database for the weather conditions in past years. The results will help you decide how hot, cold, wet, or windy it might be!

Date:

Astronomy

Aug. 14, 2014 Rise Set
Actual Time 6:25 AM MDT 7:55 PM MDT
Civil Twilight 5:58 AM MDT 8:22 PM MDT
Nautical Twilight 5:26 AM MDT 8:54 PM MDT
Astronomical Twilight 4:52 AM MDT 9:28 PM MDT
Moon 10:34 PM MDT (8/14) 10:53 AM MDT (8/14)
Length of Visible Light 14h 23m
Length of Day
13h 30m
Waning Gibbous, 78% of the Moon is Illuminated
Aug 14
Waning Gibbous
Aug 17
Last Quarter
Aug 25
New
Sep 2
First Quarter
Sep 8
Full

Hourly Weather History & Observations

Time (MDT) Temp. Heat Index Dew Point Humidity Pressure Visibility Wind Dir Wind Speed Gust Speed Precip Events Conditions
12:29 AM 68.0 °F - 55.9 °F 65% 30.27 in 10.0 mi WNW 8.1 mph - 0.03 in Thunderstorm Mostly Cloudy
12:52 AM 68.0 °F - 55.9 °F 65% 30.02 in 10.0 mi Calm Calm - 0.03 in   Mostly Cloudy
1:52 AM 66.0 °F - 60.1 °F 81% 30.03 in 10.0 mi SE 8.1 mph - N/A   Mostly Cloudy
2:52 AM 66.0 °F - 60.1 °F 81% 30.04 in 10.0 mi WSW 4.6 mph - 0.00 in Rain Light Rain
3:52 AM 64.9 °F - 61.0 °F 87% 30.04 in 10.0 mi WSW 3.5 mph - 0.00 in   Overcast
4:52 AM 64.9 °F - 60.1 °F 84% 30.04 in 10.0 mi South 4.6 mph - N/A   Overcast
5:52 AM 64.0 °F - 61.0 °F 90% 30.04 in 10.0 mi ESE 5.8 mph - N/A   Mostly Cloudy
6:52 AM 64.0 °F - 60.1 °F 87% 30.05 in 10.0 mi ESE 3.5 mph - N/A   Mostly Cloudy
7:52 AM 66.0 °F - 59.0 °F 78% 30.05 in 10.0 mi Calm Calm - N/A   Mostly Cloudy
8:52 AM 66.9 °F - 59.0 °F 76% 30.06 in 10.0 mi Calm Calm - N/A   Mostly Cloudy
9:52 AM 71.1 °F - 57.9 °F 63% 30.05 in 10.0 mi South 8.1 mph - N/A   Mostly Cloudy
10:52 AM 73.0 °F - 57.9 °F 59% 30.03 in 10.0 mi South 8.1 mph - N/A   Scattered Clouds
11:52 AM 75.9 °F - 57.9 °F 54% 30.01 in 10.0 mi West 5.8 mph - N/A   Scattered Clouds
12:52 PM 78.1 °F - 57.0 °F 48% 29.99 in 10.0 mi South 6.9 mph - N/A   Mostly Cloudy
1:52 PM 81.0 °F 80.7 °F 55.0 °F 41% 29.96 in 10.0 mi SSW 5.8 mph - N/A   Mostly Cloudy
2:52 PM 81.0 °F 80.7 °F 55.0 °F 41% 29.94 in 10.0 mi Variable 6.9 mph - N/A   Mostly Cloudy
3:52 PM 82.0 °F 81.4 °F 55.0 °F 39% 29.91 in 10.0 mi Calm Calm - N/A   Mostly Cloudy
4:52 PM 81.0 °F 80.7 °F 55.0 °F 41% 29.91 in 10.0 mi WSW 10.4 mph - N/A   Mostly Cloudy
5:52 PM 80.1 °F 80.2 °F 55.9 °F 43% 29.90 in 10.0 mi South 11.5 mph - N/A   Mostly Cloudy
6:52 PM 80.1 °F 80.2 °F 55.9 °F 43% 29.91 in 10.0 mi South 13.8 mph - N/A   Mostly Cloudy
7:52 PM 78.1 °F - 55.9 °F 46% 29.90 in 10.0 mi South 11.5 mph - N/A   Mostly Cloudy
8:52 PM 77.0 °F - 55.9 °F 48% 29.93 in 10.0 mi SSE 4.6 mph - N/A   Mostly Cloudy
9:35 PM 75.9 °F - 57.9 °F 54% 30.19 in 10.0 mi WSW 11.5 mph 17.3 mph N/A Thunderstorm Mostly Cloudy
9:52 PM 73.9 °F - 54.0 °F 50% 29.95 in 10.0 mi SW 8.1 mph - N/A   Mostly Cloudy
10:52 PM 70.0 °F - 55.0 °F 59% 29.96 in 10.0 mi SE 9.2 mph - N/A   Mostly Cloudy
11:52 PM 70.0 °F - 55.0 °F 59% 29.98 in 10.0 mi South 10.4 mph - N/A   Mostly Cloudy